Aérodrome :
LOGIN :

S'inscrire | Disclaimer

   EN    FR    IT 

 










Légende :    VFR   VFR Marginal   IFR   IFR Intensif   IFR Très Intensif
Visi : 
Plafond : 
>= 8 km
>= 3000ft
5 à 8 km
1000 à 3000 ft
1500m à 5 km
500 à 1000 ft
800 à 1500m
200 à 500 ft
< 800m
< 200 ft
Symboles :   Orages  Brouillard  Fortes neiges  Fortes précipitations  Vent > 20 kt
SIGMETs :   Divers  Orages  Givrage  Turbulence  Onde Orograph.  Cendres Volcan.







- Altitude de l'aérodrome : 125 ft
- Code IATA : MGL


EDLN - Mönchengladbach

DERNIER METAR :
  • 291250Z 14005KT 100V250 CAVOK 32/17 Q1010

METARs EXPIRÉS :
  • 291220Z VRB06KT CAVOK 32/17 Q1011
  • 291150Z 15006KT CAVOK 31/16 Q1011
  • 291120Z 18006KT 110V280 CAVOK 31/18 Q1011
  • 291050Z 15007KT 100V220 CAVOK 30/18 Q1011
  • 291020Z 14007KT 100V170 CAVOK 29/17 Q1011

TAF TAF EDLN
Valide du 29 à 12h jusqu'au 29 à 21h UTC


291100Z 2912/2921 14007KT CAVOK
BECMG 2913/2915 28007KT
Pas de NOTAMs connus pour ce terrain.



MET'MAP, la Météo Aéronautique d'un coup d'oeil ! - Copyright ORBIFLY Décembre 2007 - Disclaimer

ORBIFLY MET'MAP TEAM :

Programmation & Développement : Alexandra Zaïnal
Conception & Développement : Baudouin d'Aumeries
Co-Programmation & Développement : Marc-Olivier Méhu
Soutien technique & logistique : Manuel Goepfert

Contact : metmap@orbifly.com




SOURCES & CREDITS :

   NOAA